Canton, MA

2:36 AM EST on February 23, 2017 (GMT -0500)
East Milton

Weather History for KMQE - June, 2013

Change the Weather History Date:

Tuesday, June 25, 2013

  Actual Average (KOWD) Record (KOWD)
Temperature  
Mean Temperature 78 °F -  
Max Temperature 90 °F 80 °F 93 °F (2003)
Min Temperature 68 °F 57 °F 45 °F (2002)
Cooling Degree Days 14    
Growing Degree Days 28 (Base 50)    
Moisture  
Dew Point 65 °F    
Average Humidity 67    
Maximum Humidity 87    
Minimum Humidity 43    
Precipitation  
Precipitation 0.00 in - - ()
Sea Level Pressure  
Sea Level Pressure 29.87 in    
Wind  
Wind Speed 13 mph (WSW)    
Max Wind Speed 17 mph    
Max Gust Speed 31 mph    
Averages and records for this station are not official NWS values.
T = Trace of Precipitation, MM = Missing Value Source: NWS Daily Summary

Daily Weather History Graph

Daily Weather History Graph

Search for Another Location

Airport or City:

Trip Planner

Search our weather history database for the weather conditions in past years. The results will help you decide how hot, cold, wet, or windy it might be!

Date:

Astronomy

Jun. 25, 2013 Rise Set
Actual Time 5:09 AM EDT 8:24 PM EDT
Civil Twilight 4:34 AM EDT 8:59 PM EDT
Nautical Twilight 3:50 AM EDT 9:44 PM EDT
Astronomical Twilight 2:55 AM EDT 10:38 PM EDT
Moon 10:04 PM EDT (6/25) 7:48 AM EDT (6/25)
Length of Visible Light 16h 24m
Length of Day
15h 15m
Waning Gibbous, 93% of the Moon is Illuminated
Jun 25
Waning Gibbous
Jun 30
Last Quarter
Jul 8
New
Jul 15
First Quarter
Jul 22
Full

Hourly Weather History & Observations

Time (EDT) Temp. Heat Index Dew Point Humidity Pressure Visibility Wind Dir Wind Speed Gust Speed Precip Events Conditions
12:54 AM 69.1 °F - 64.9 °F 87% 29.95 in - WSW 13.8 mph - N/A   Unknown
1:54 AM 69.1 °F - 64.9 °F 87% 29.95 in - West 11.5 mph - N/A   Unknown
2:54 AM 68.0 °F - 64.0 °F 87% 29.94 in - West 12.7 mph - N/A   Unknown
3:54 AM 68.0 °F - 64.0 °F 87% 29.92 in - WSW 9.2 mph - N/A   Unknown
4:54 AM 68.0 °F - 64.0 °F 87% 29.94 in - West 13.8 mph - N/A   Unknown
5:54 AM 68.0 °F - 64.0 °F 87% 29.94 in - WSW 12.7 mph - N/A   Unknown
6:54 AM 70.0 °F - 62.1 °F 76% 29.93 in - West 12.7 mph - N/A   Unknown
7:54 AM 72.0 °F - 64.0 °F 76% 29.92 in - WSW 10.4 mph - N/A   Unknown
8:54 AM 75.9 °F - 64.9 °F 69% 29.93 in - West 10.4 mph - N/A   Unknown
9:54 AM 80.1 °F 82.1 °F 66.0 °F 62% 29.92 in - West 9.2 mph - N/A   Unknown
10:54 AM 82.9 °F 85.4 °F 66.9 °F 58% 29.92 in - West 12.7 mph 18.4 mph N/A   Unknown
11:54 AM 86.0 °F 89.4 °F 68.0 °F 55% 29.92 in - West 11.5 mph 18.4 mph N/A   Unknown
12:54 PM 87.1 °F 89.9 °F 66.9 °F 51% 29.90 in - West 13.8 mph 20.7 mph N/A   Unknown
1:54 PM 88.0 °F 90.7 °F 66.9 °F 49% 29.88 in - West 11.5 mph 21.9 mph N/A   Unknown
2:54 PM 89.1 °F 92.1 °F 66.9 °F 48% 29.85 in - WSW 11.5 mph 18.4 mph N/A   Unknown
3:54 PM 89.1 °F 90.3 °F 64.0 °F 43% 29.83 in - SW 15.0 mph 25.3 mph N/A   Unknown
4:54 PM 88.0 °F 89.6 °F 64.9 °F 46% 29.80 in - SSW 16.1 mph 25.3 mph N/A   Unknown
5:54 PM 87.1 °F 88.3 °F 64.0 °F 46% 29.80 in - SW 13.8 mph 25.3 mph N/A   Unknown
6:54 PM 82.9 °F 85.0 °F 66.0 °F 56% 29.80 in - SSW 17.3 mph 23.0 mph N/A   Unknown
7:54 PM 82.0 °F 84.1 °F 66.0 °F 58% 29.78 in - SSW 16.1 mph 23.0 mph N/A   Unknown
8:54 PM 77.0 °F - 64.0 °F 64% 29.78 in - WSW 16.1 mph 31.1 mph N/A   Unknown
9:54 PM 77.0 °F - 64.9 °F 66% 29.78 in - WSW 11.5 mph 19.6 mph N/A   Unknown
10:54 PM 73.9 °F - 66.9 °F 79% 29.79 in - West 12.7 mph 18.4 mph N/A   Unknown
11:54 PM 72.0 °F - 66.9 °F 84% 29.79 in - WSW 8.1 mph - N/A   Unknown